sat.trackr.live / text

‹ back to catalog

STARLINK-32830

NORAD 63034 · 2025-034F

PAYLOAD ACTIVE UNKNOWN

§ Identity

Operator
Country
US
Launch date
2025-02-18
Launch site
AFETR
Launch vehicle
Mass (kg)
RCS (m²)

Purposes: comms

External: N2YO · Heavens-Above · Gunter

§ Orbital elements

Epoch: 2026-09-21T19:08:13.494624Z

Period
94.01 min
Inclination
53.1575°
Eccentricity
0.0000875
Mean motion
15.31709150 rev/d
Perigee alt
470.1 km
Apogee alt
471.3 km
Semi-major
6,848.8 km
B*
4.0223e-4
RAAN
65.6719°
Arg perigee
84.3015°
Mean anomaly
275.8087°
Rev number
8,913

§ Raw data

STARLINK-328301 63034U 25034F   26264.79737841  .00012140  00000+0  40223-3 0  99972 63034  53.1575  65.6719 0000875  84.3015 275.8087 15.31709150 89139

JSON: /api/v1/satellites/63034 · /tle

For live sub-satellite position, see the globe view (requires WebGL).

§ Visibility from observer

Set your observer location to see the next 7 days of passes ≥ 10°. The values pass through the URL so the page stays shareable.

No JS? Fill the form by hand. The geolocation button needs JavaScript.